Weather in Saky

Russia / Republic of Crimea     45˚07′55″N   33˚36′00″E
temp.,
°C
wind,
m/s
gust,
m/s
humid.,
%
clouds,
%
prec.,
mm/h
press.,
hPa
HPBL,
m
2 december, wed
wed200:00+5˚n339217 0.0 102088
03:00+5˚nne238849 0.0 102190
06:00+6˚e2385100 0.0 1021125
09:00+6˚e3481100 0.0 1022163
12:00+9˚e236897 0.0 1022284
15:00+10˚ssw126575 0.0 1022579
18:00+8˚w227993 0.0 102296
21:00+6˚e128689 0.0 102366
3 december, thu
thu300:00+5˚ene228957 0.0 102338
03:00+5˚ese238967 0.0 102353
06:00+5˚e3487100 0.0 102353
09:00+6˚e448582 0.0 102489
12:00+11˚e45631 0.0 1023274
15:00+13˚e45563 0.0 1023493
18:00+9˚ene597710 0.0 1022192
21:00+7˚ene699016 0.0 1022187
4 december, fri
fri400:00+6˚ene610900 0.0 1022206
03:00+6˚ene610880 0.0 1021208
06:00+6˚ene610890 0.0 1020208
09:00+6˚ene711930 0.0 1021262
12:00+11˚ene68720 0.0 1020283
15:00+13˚ene57651 0.0 1020318
18:00+9˚ene7118225 0.0 1020231
21:00+7˚ene699237 0.0 1021193
5 december, sat
sat500:00+7˚ene69906 0.0 1020158
03:00+6˚ene6108710 0.0 1021172
06:00+6˚ene7108813 0.0 1021208
09:00+6˚ene711866 0.0 1022238
12:00+10˚ene711650 0.0 1022320
15:00+11˚ene811610 0.0 1022381
18:00+7˚ene914820 0.0 1023335
21:00+5˚ene915850 0.0 1024336
6 december, sun
sun600:00+5˚ene814883 0.0 1024318
03:00+4˚ene8148921 0.0 1024335
06:00+4˚ene9158966 0.0 1023385
09:00+4˚ene9148644 0.0 1024438
12:00+7˚ene1014710 0.0 1024508
15:00+7˚ene913700 0.0 1023496
18:00+4˚ene1016810 0.0 1023450
21:00+4˚e1016760 0.0 1023426